Powrót do katalogu

SJ-21

AktywnyNaukaGEO
NORAD 49330·PAYLOAD·🇨🇳 China

Wystrzelony Oct 24, 2021 z Xichang Satellite Launch Center

Loading…

TLE

ŚwieżeSource: Space-Track

Epoka: Sep 14, 2026, 15:36 UTC

1 49330U 21094A   26257.65003169 -.00000354  00000-0  00000-0 0  9990
2 49330   5.3206  60.5749 0053537 171.4574 123.5056  1.00266337  6253

Śledź SJ-21 w czasie rzeczywistym z AllMySat

Download on the App Store